| time (UTC) | temp F | wind direction | speed MPH | gust MPH | rain 1hr in | rain 24hr in | rain mn in | humidity % | barometer mb |
| 20260902072024 | 58 | 0.0 | 1.0 | 0.00 | 0.00 | 0.00 | 80 | 1017.1 | |
| 20260902071504 | 58 | 0.0 | 1.0 | 0.00 | 0.00 | 0.00 | 80 | 1017.1 | |
| 20260902071024 | 58 | 0.0 | 0.0 | 0.00 | 0.00 | 0.00 | 80 | 1017.2 | |
| 20260902070505 | 59 | 0.0 | 1.0 | 0.00 | 0.00 | 0.00 | 79 | 1017.1 | |
| 20260902070006 | 59 | 0.0 | 1.0 | 0.00 | 0.00 | 0.00 | 79 | 1017.0 | |
| 20260902065544 | 59 | 0.0 | 1.0 | 0.00 | 0.00 | 0.00 | 79 | 1017.2 | |
| 20260902065004 | 59 | 0.0 | 1.0 | 0.00 | 0.00 | 0.00 | 79 | 1017.2 | |
| 20260902064503 | 59 | 0.0 | 1.0 | 0.00 | 0.00 | 0.00 | 79 | 1017.1 | |
| 20260902064009 | 59 | 0.0 | 1.0 | 0.00 | 0.00 | 0.00 | 79 | 1017.0 | |
| 20260902063504 | 59 | 0.0 | 1.0 | 0.00 | 0.00 | 0.00 | 78 | 1017.1 | |
| 20260902063008 | 59 | 0.0 | 1.0 | 0.00 | 0.00 | 0.00 | 78 | 1017.0 | |
| 20260902062504 | 60 | 0.0 | 1.0 | 0.00 | 0.00 | 0.00 | 78 | 1017.0 | |
| 20260902062004 | 60 | 0.0 | 1.0 | 0.00 | 0.00 | 0.00 | 78 | 1017.0 | |
| 20260902061523 | 60 | 0.0 | 1.0 | 0.00 | 0.00 | 0.00 | 78 | 1016.9 | |
| 20260902061006 | 60 | 0.0 | 1.0 | 0.00 | 0.00 | 0.00 | 77 | 1016.9 | |
| 20260902060503 | 60 | 0.0 | 1.0 | 0.00 | 0.00 | 0.00 | 77 | 1016.9 | |
| 20260902060003 | 60 | 0.0 | 1.0 | 0.00 | 0.00 | 0.00 | 76 | 1016.7 | |
| 20260902055503 | 61 | 0.0 | 1.0 | 0.00 | 0.00 | 0.00 | 76 | 1016.8 | |
| 20260902055003 | 61 | 0.0 | 1.0 | 0.00 | 0.00 | 0.00 | 76 | 1016.8 | |
| 20260902054504 | 61 | 0.0 | 1.0 | 0.00 | 0.00 | 0.00 | 76 | 1016.9 | |
| 20260902054008 | 61 | 0.0 | 1.0 | 0.00 | 0.00 | 0.00 | 76 | 1016.9 | |
| 20260902053503 | 61 | 0.0 | 1.0 | 0.00 | 0.00 | 0.00 | 75 | 1017.0 | |
| 20260902053008 | 61 | 0.0 | 1.0 | 0.00 | 0.00 | 0.00 | 75 | 1017.1 | |
| 20260902052503 | 62 | 0.0 | 1.0 | 0.00 | 0.00 | 0.00 | 75 | 1017.2 | |
| 20260902052008 | 62 | 0.0 | 0.0 | 0.00 | 0.00 | 0.00 | 75 | 1017.3 | |
| 20260902051503 | 62 | 0.0 | 1.0 | 0.00 | 0.00 | 0.00 | 75 | 1017.3 | |
| 20260902051028 | 62 | 0.0 | 1.0 | 0.00 | 0.00 | 0.00 | 75 | 1017.5 | |
| 20260902050528 | 62 | 0.0 | 2.0 | 0.00 | 0.00 | 0.00 | 74 | 1017.4 | |
| 20260902050009 | 62 | 0.0 | 2.0 | 0.00 | 0.00 | 0.00 | 74 | 1017.4 | |
| 20260902045509 | 62 | 0.0 | 1.0 | 0.00 | 0.00 | 0.00 | 74 | 1017.3 | |
| 20260902045008 | 63 | 0.0 | 1.0 | 0.00 | 0.00 | 0.00 | 73 | 1017.2 | |
| 20260902044503 | 63 | 0.0 | 1.0 | 0.00 | 0.00 | 0.00 | 74 | 1017.2 | |
| 20260902044008 | 63 | 315 | 1.0 | 2.0 | 0.00 | 0.00 | 0.00 | 74 | 1017.3 |
| 20260902043504 | 63 | 0.0 | 2.0 | 0.00 | 0.00 | 0.00 | 73 | 1017.1 | |
| 20260902043004 | 63 | 0.0 | 1.0 | 0.00 | 0.00 | 0.00 | 73 | 1017.2 | |
| 20260902042508 | 63 | 315 | 1.0 | 4.0 | 0.00 | 0.00 | 0.00 | 73 | 1017.2 |
| 20260902042008 | 63 | 315 | 1.0 | 2.0 | 0.00 | 0.00 | 0.00 | 73 | 1017.2 |
| 20260902041508 | 63 | 315 | 1.0 | 3.0 | 0.00 | 0.00 | 0.00 | 73 | 1017.1 |
| 20260902041024 | 63 | 315 | 1.0 | 4.0 | 0.00 | 0.00 | 0.00 | 73 | 1017.0 |
| 20260902040503 | 63 | 315 | 1.0 | 7.0 | 0.00 | 0.00 | 0.00 | 73 | 1016.8 |
| 20260902040008 | 63 | 315 | 1.0 | 3.0 | 0.00 | 0.00 | 0.00 | 73 | 1016.9 |
| 20260902035508 | 64 | 248 | 1.0 | 4.0 | 0.00 | 0.00 | 0.00 | 72 | 1016.8 |
| 20260902035008 | 64 | 270 | 1.0 | 3.0 | 0.00 | 0.00 | 0.00 | 72 | 1016.7 |
| 20260902034503 | 64 | 293 | 1.0 | 3.0 | 0.00 | 0.00 | 0.00 | 72 | 1016.7 |
| 20260902034003 | 64 | 248 | 2.0 | 5.0 | 0.00 | 0.00 | 0.00 | 72 | 1016.7 |
| 20260902033508 | 64 | 315 | 1.0 | 3.0 | 0.00 | 0.00 | 0.00 | 72 | 1016.7 |
| 20260902033003 | 64 | 248 | 2.0 | 6.0 | 0.00 | 0.00 | 0.00 | 71 | 1016.6 |
| 20260902032503 | 64 | 315 | 2.0 | 5.0 | 0.00 | 0.00 | 0.00 | 71 | 1016.4 |
| 20260902032008 | 64 | 248 | 2.0 | 6.0 | 0.00 | 0.00 | 0.00 | 70 | 1016.5 |
| 20260902031508 | 64 | 248 | 1.0 | 4.0 | 0.00 | 0.00 | 0.00 | 70 | 1016.4 |
| 20260902031003 | 65 | 315 | 1.0 | 4.0 | 0.00 | 0.00 | 0.00 | 69 | 1016.4 |
| 20260902030508 | 65 | 248 | 2.0 | 6.0 | 0.00 | 0.00 | 0.00 | 69 | 1016.4 |
| 20260902030026 | 65 | 248 | 1.0 | 7.0 | 0.00 | 0.00 | 0.00 | 68 | 1016.3 |
| 20260902025508 | 65 | 270 | 2.0 | 4.0 | 0.00 | 0.00 | 0.00 | 68 | 1016.4 |
| 20260902025003 | 65 | 315 | 1.0 | 5.0 | 0.00 | 0.00 | 0.00 | 67 | 1016.3 |
| 20260902024523 | 65 | 270 | 1.0 | 6.0 | 0.00 | 0.00 | 0.00 | 66 | 1016.3 |
| 20260902024008 | 66 | 315 | 2.0 | 6.0 | 0.00 | 0.00 | 0.00 | 66 | 1016.3 |
| 20260902023508 | 66 | 248 | 2.0 | 5.0 | 0.00 | 0.00 | 0.00 | 65 | 1016.2 |
| 20260902023008 | 66 | 293 | 1.0 | 4.0 | 0.00 | 0.00 | 0.00 | 64 | 1016.1 |
| 20260902022508 | 67 | 248 | 2.0 | 6.0 | 0.00 | 0.00 | 0.00 | 63 | 1016.1 |
| 20260902022003 | 67 | 248 | 2.0 | 7.0 | 0.00 | 0.00 | 0.00 | 62 | 1016.1 |
| 20260902021508 | 67 | 293 | 2.0 | 6.0 | 0.00 | 0.00 | 0.00 | 61 | 1016.1 |
| 20260902021003 | 68 | 315 | 3.0 | 8.0 | 0.00 | 0.00 | 0.00 | 60 | 1016.1 |
| 20260902020508 | 68 | 225 | 2.0 | 5.0 | 0.00 | 0.00 | 0.00 | 59 | 1016.1 |
| 20260902020008 | 69 | 248 | 2.0 | 7.0 | 0.00 | 0.00 | 0.00 | 59 | 1016.0 |
| 20260902015523 | 69 | 270 | 2.0 | 5.0 | 0.00 | 0.00 | 0.00 | 58 | 1016.0 |
| 20260902015003 | 69 | 248 | 2.0 | 5.0 | 0.00 | 0.00 | 0.00 | 57 | 1016.0 |
| 20260902014528 | 70 | 315 | 2.0 | 8.0 | 0.00 | 0.00 | 0.00 | 56 | 1016.0 |
| 20260902014010 | 70 | 293 | 2.0 | 5.0 | 0.00 | 0.00 | 0.00 | 54 | 1016.0 |
| 20260902013525 | 70 | 225 | 1.0 | 4.0 | 0.00 | 0.00 | 0.00 | 54 | 1015.9 |
| 20260902013003 | 70 | 315 | 2.0 | 11.0 | 0.00 | 0.00 | 0.00 | 53 | 1016.1 |
| 20260902012530 | 71 | 293 | 2.0 | 6.0 | 0.00 | 0.00 | 0.00 | 53 | 1016.0 |
| 20260902012010 | 71 | 248 | 3.0 | 8.0 | 0.00 | 0.00 | 0.00 | 52 | 1015.9 |
| 20260902011510 | 72 | 315 | 2.0 | 6.0 | 0.00 | 0.00 | 0.00 | 52 | 1015.9 |
| 20260902011005 | 72 | 293 | 1.0 | 3.0 | 0.00 | 0.00 | 0.00 | 52 | 1015.8 |
| 20260902010510 | 72 | 315 | 1.0 | 5.0 | 0.00 | 0.00 | 0.00 | 52 | 1015.9 |
| 20260902010010 | 72 | 315 | 2.0 | 7.0 | 0.00 | 0.00 | 0.00 | 51 | 1015.8 |
| 20260902005509 | 72 | 315 | 2.0 | 5.0 | 0.00 | 0.00 | 0.00 | 52 | 1015.8 |
| 20260902005005 | 72 | 248 | 2.0 | 7.0 | 0.00 | 0.00 | 0.00 | 52 | 1016.0 |
| 20260902004509 | 72 | 315 | 2.0 | 6.0 | 0.00 | 0.00 | 0.00 | 51 | 1015.8 |
| 20260902004030 | 73 | 248 | 3.0 | 7.0 | 0.00 | 0.00 | 0.00 | 51 | 1015.9 |
| 20260902003510 | 73 | 248 | 2.0 | 7.0 | 0.00 | 0.00 | 0.00 | 51 | 1015.8 |
| 20260902003009 | 73 | 248 | 2.0 | 5.0 | 0.00 | 0.00 | 0.00 | 51 | 1015.8 |
| 20260902002525 | 73 | 315 | 2.0 | 7.0 | 0.00 | 0.00 | 0.00 | 50 | 1015.9 |
| 20260902002010 | 73 | 315 | 2.0 | 7.0 | 0.00 | 0.00 | 0.00 | 50 | 1015.8 |
| 20260902001510 | 74 | 315 | 2.0 | 7.0 | 0.00 | 0.00 | 0.00 | 49 | 1015.7 |
| 20260902001009 | 74 | 315 | 2.0 | 5.0 | 0.00 | 0.00 | 0.00 | 49 | 1015.8 |
| 20260902000509 | 74 | 338 | 2.0 | 7.0 | 0.00 | 0.00 | 0.00 | 49 | 1015.9 |
| 20260902000030 | 74 | 315 | 2.0 | 5.0 | 0.00 | 0.00 | 0.00 | 49 | 1015.8 |
| 20260901235505 | 73 | 293 | 2.0 | 6.0 | 0.00 | 0.00 | 0.00 | 49 | 1015.9 |
| 20260901235004 | 74 | 315 | 3.0 | 6.0 | 0.00 | 0.00 | 0.00 | 48 | 1015.8 |
| 20260901234510 | 74 | 315 | 3.0 | 9.0 | 0.00 | 0.00 | 0.00 | 47 | 1015.8 |
| 20260901234004 | 75 | 315 | 2.0 | 8.0 | 0.00 | 0.00 | 0.00 | 47 | 1015.9 |
| 20260901233509 | 75 | 315 | 3.0 | 7.0 | 0.00 | 0.00 | 0.00 | 46 | 1015.9 |
| 20260901233009 | 75 | 315 | 2.0 | 5.0 | 0.00 | 0.00 | 0.00 | 45 | 1015.8 |
| 20260901232510 | 75 | 315 | 2.0 | 5.0 | 0.00 | 0.00 | 0.00 | 46 | 1015.7 |
| 20260901232007 | 75 | 315 | 2.0 | 8.0 | 0.00 | 0.00 | 0.00 | 45 | 1015.7 |
| 20260901231529 | 75 | 315 | 2.0 | 6.0 | 0.00 | 0.00 | 0.00 | 46 | 1015.8 |
| 20260901231005 | 75 | 0 | 3.0 | 8.0 | 0.00 | 0.00 | 0.00 | 46 | 1015.8 |
| 20260901230504 | 76 | 315 | 2.0 | 7.0 | 0.00 | 0.00 | 0.00 | 45 | 1015.8 |
| 20260901230029 | 76 | 315 | 2.0 | 5.0 | 0.00 | 0.00 | 0.00 | 45 | 1015.7 |
| 20260901225509 | 76 | 315 | 2.0 | 4.0 | 0.00 | 0.00 | 0.00 | 45 | 1015.7 |
| 20260901225010 | 75 | 315 | 2.0 | 5.0 | 0.00 | 0.00 | 0.00 | 45 | 1015.7 |
| 20260901224509 | 75 | 315 | 2.0 | 7.0 | 0.00 | 0.00 | 0.00 | 46 | 1015.6 |
| 20260901224004 | 75 | 315 | 3.0 | 7.0 | 0.00 | 0.00 | 0.00 | 46 | 1015.6 |
| 20260901223509 | 74 | 315 | 2.0 | 5.0 | 0.00 | 0.00 | 0.00 | 47 | 1015.6 |
| 20260901223005 | 74 | 315 | 2.0 | 6.0 | 0.00 | 0.00 | 0.00 | 48 | 1015.5 |
| 20260901222505 | 72 | 338 | 2.0 | 7.0 | 0.00 | 0.00 | 0.00 | 51 | 1015.7 |
| 20260901222004 | 71 | 45 | 2.0 | 6.0 | 0.00 | 0.00 | 0.00 | 54 | 1015.6 |
| 20260901221509 | 71 | 45 | 3.0 | 8.0 | 0.00 | 0.00 | 0.00 | 56 | 1015.7 |
| 20260901221024 | 70 | 45 | 3.0 | 7.0 | 0.00 | 0.00 | 0.00 | 57 | 1015.7 |
| 20260901220504 | 70 | 45 | 3.0 | 6.0 | 0.00 | 0.00 | 0.00 | 57 | 1015.9 |
| 20260901220009 | 70 | 45 | 3.0 | 7.0 | 0.00 | 0.00 | 0.00 | 56 | 1015.9 |
| 20260901215510 | 71 | 23 | 4.0 | 8.0 | 0.00 | 0.00 | 0.00 | 56 | 1016.0 |
| 20260901215029 | 71 | 23 | 3.0 | 6.0 | 0.00 | 0.00 | 0.00 | 56 | 1015.9 |
| 20260901214510 | 71 | 45 | 3.0 | 7.0 | 0.00 | 0.00 | 0.00 | 56 | 1016.0 |
| 20260901214025 | 71 | 23 | 3.0 | 7.0 | 0.00 | 0.00 | 0.00 | 55 | 1016.0 |
| 20260901213524 | 71 | 23 | 3.0 | 8.0 | 0.00 | 0.00 | 0.00 | 55 | 1016.0 |
| 20260901213004 | 71 | 45 | 3.0 | 6.0 | 0.00 | 0.00 | 0.00 | 55 | 1016.0 |
| 20260901212509 | 71 | 45 | 2.0 | 6.0 | 0.00 | 0.00 | 0.00 | 54 | 1016.1 |
| 20260901212004 | 71 | 45 | 2.0 | 6.0 | 0.00 | 0.00 | 0.00 | 54 | 1016.2 |
| 20260901211504 | 71 | 23 | 2.0 | 5.0 | 0.00 | 0.00 | 0.00 | 53 | 1016.2 |
| 20260901211029 | 72 | 45 | 2.0 | 6.0 | 0.00 | 0.00 | 0.00 | 54 | 1016.3 |
| 20260901210544 | 72 | 45 | 2.0 | 6.0 | 0.00 | 0.00 | 0.00 | 53 | 1016.3 |
| 20260901210009 | 72 | 45 | 2.0 | 4.0 | 0.00 | 0.00 | 0.00 | 53 | 1016.0 |
| 20260901205505 | 73 | 45 | 2.0 | 5.0 | 0.00 | 0.00 | 0.00 | 52 | 1016.2 |
| 20260901205004 | 74 | 45 | 2.0 | 7.0 | 0.00 | 0.00 | 0.00 | 52 | 1016.1 |
| 20260901204509 | 74 | 45 | 2.0 | 5.0 | 0.00 | 0.00 | 0.00 | 52 | 1016.1 |
| 20260901204029 | 73 | 113 | 2.0 | 5.0 | 0.00 | 0.00 | 0.00 | 54 | 1016.1 |
| 20260901203504 | 72 | 45 | 1.0 | 4.0 | 0.00 | 0.00 | 0.00 | 56 | 1016.2 |
| 20260901203004 | 71 | 45 | 2.0 | 5.0 | 0.00 | 0.00 | 0.00 | 56 | 1016.4 |
| 20260901202544 | 71 | 45 | 1.0 | 4.0 | 0.00 | 0.00 | 0.00 | 58 | 1016.6 |
| 20260901202007 | 70 | 45 | 2.0 | 5.0 | 0.00 | 0.00 | 0.00 | 57 | 1016.7 |
| 20260901201524 | 70 | 45 | 2.0 | 3.0 | 0.00 | 0.00 | 0.00 | 57 | 1016.7 |
| 20260901201004 | 70 | 45 | 2.0 | 5.0 | 0.00 | 0.00 | 0.00 | 57 | 1016.8 |
| 20260901200504 | 70 | 45 | 2.0 | 5.0 | 0.00 | 0.00 | 0.00 | 57 | 1016.9 |
| 20260901200004 | 70 | 0 | 1.0 | 4.0 | 0.00 | 0.00 | 0.00 | 57 | 1016.9 |
| 20260901195504 | 70 | 45 | 2.0 | 5.0 | 0.00 | 0.00 | 0.00 | 57 | 1016.9 |
| 20260901195004 | 70 | 23 | 2.0 | 5.0 | 0.00 | 0.00 | 0.00 | 57 | 1016.9 |
| 20260901194509 | 70 | 45 | 2.0 | 5.0 | 0.00 | 0.00 | 0.00 | 56 | 1016.8 |
| 20260901194004 | 70 | 45 | 2.0 | 5.0 | 0.00 | 0.00 | 0.00 | 55 | 1016.9 |
| 20260901193504 | 71 | 0 | 2.0 | 6.0 | 0.00 | 0.00 | 0.00 | 54 | 1017.0 |
| 20260901193004 | 72 | 293 | 1.0 | 2.0 | 0.00 | 0.00 | 0.00 | 53 | 1017.0 |
| 20260901192504 | 71 | 158 | 2.0 | 4.0 | 0.00 | 0.00 | 0.00 | 53 | 1016.9 |
| 20260901192004 | 70 | 225 | 1.0 | 3.0 | 0.00 | 0.00 | 0.00 | 55 | 1016.9 |
| 20260901191504 | 70 | 225 | 1.0 | 3.0 | 0.00 | 0.00 | 0.00 | 55 | 1016.9 |
| 20260901191004 | 70 | 135 | 1.0 | 2.0 | 0.00 | 0.00 | 0.00 | 56 | 1017.1 |
| 20260901190504 | 69 | 135 | 1.0 | 3.0 | 0.00 | 0.00 | 0.00 | 56 | 1017.2 |
| 20260901190004 | 69 | 45 | 1.0 | 2.0 | 0.00 | 0.00 | 0.00 | 57 | 1017.2 |
| 20260901185524 | 69 | 0.0 | 2.0 | 0.00 | 0.00 | 0.00 | 57 | 1017.2 | |
| 20260901185004 | 69 | 0.0 | 1.0 | 0.00 | 0.00 | 0.00 | 58 | 1017.3 | |
| 20260901184504 | 69 | 0.0 | 2.0 | 0.00 | 0.00 | 0.00 | 58 | 1017.4 | |
| 20260901184004 | 69 | 0.0 | 1.0 | 0.00 | 0.00 | 0.00 | 58 | 1017.3 | |
| 20260901183504 | 68 | 270 | 1.0 | 2.0 | 0.00 | 0.00 | 0.00 | 58 | 1017.3 |
| 20260901183004 | 68 | 23 | 1.0 | 2.0 | 0.00 | 0.00 | 0.00 | 59 | 1017.3 |
| 20260901182504 | 68 | 0.0 | 2.0 | 0.00 | 0.00 | 0.00 | 59 | 1017.3 | |
| 20260901182004 | 68 | 23 | 1.0 | 2.0 | 0.00 | 0.00 | 0.00 | 58 | 1017.3 |
| 20260901181504 | 68 | 23 | 1.0 | 3.0 | 0.00 | 0.00 | 0.00 | 58 | 1017.3 |
| 20260901181004 | 68 | 45 | 1.0 | 3.0 | 0.00 | 0.00 | 0.00 | 58 | 1017.3 |
| 20260901180504 | 68 | 135 | 1.0 | 2.0 | 0.00 | 0.00 | 0.00 | 59 | 1017.3 |
| 20260901180009 | 68 | 270 | 1.0 | 2.0 | 0.00 | 0.00 | 0.00 | 59 | 1017.3 |
| 20260901175504 | 68 | 270 | 1.0 | 3.0 | 0.00 | 0.00 | 0.00 | 60 | 1017.3 |
| 20260901175007 | 68 | 315 | 1.0 | 3.0 | 0.00 | 0.00 | 0.00 | 59 | 1017.3 |
| 20260901174524 | 68 | 0.0 | 2.0 | 0.00 | 0.00 | 0.00 | 59 | 1017.2 | |
| 20260901174006 | 68 | 315 | 1.0 | 2.0 | 0.00 | 0.00 | 0.00 | 59 | 1017.2 |
| 20260901173504 | 68 | 0.0 | 2.0 | 0.00 | 0.00 | 0.00 | 58 | 1017.1 | |
| 20260901173004 | 68 | 225 | 1.0 | 2.0 | 0.00 | 0.00 | 0.00 | 58 | 1017.1 |
| 20260901172504 | 68 | 225 | 1.0 | 2.0 | 0.00 | 0.00 | 0.00 | 58 | 1017.0 |
| 20260901172029 | 68 | 248 | 1.0 | 2.0 | 0.00 | 0.00 | 0.00 | 58 | 1016.9 |
| 20260901171504 | 68 | 225 | 1.0 | 3.0 | 0.00 | 0.00 | 0.00 | 58 | 1016.9 |
| 20260901171004 | 68 | 315 | 1.0 | 3.0 | 0.00 | 0.00 | 0.00 | 58 | 1016.9 |
| 20260901170504 | 68 | 315 | 1.0 | 3.0 | 0.00 | 0.00 | 0.00 | 58 | 1016.8 |
| 20260901170004 | 68 | 293 | 1.0 | 2.0 | 0.00 | 0.00 | 0.00 | 58 | 1016.8 |
| 20260901165509 | 67 | 0.0 | 1.0 | 0.00 | 0.00 | 0.00 | 58 | 1016.8 | |
| 20260901165004 | 67 | 315 | 1.0 | 2.0 | 0.00 | 0.00 | 0.00 | 59 | 1016.8 |
| 20260901164504 | 67 | 315 | 1.0 | 2.0 | 0.00 | 0.00 | 0.00 | 59 | 1016.9 |
| 20260901164009 | 67 | 45 | 1.0 | 2.0 | 0.00 | 0.00 | 0.00 | 60 | 1016.7 |
| 20260901163503 | 66 | 225 | 1.0 | 2.0 | 0.00 | 0.00 | 0.00 | 61 | 1016.7 |
| 20260901163008 | 66 | 225 | 1.0 | 2.0 | 0.00 | 0.00 | 0.00 | 61 | 1016.7 |
| 20260901162508 | 66 | 315 | 1.0 | 2.0 | 0.00 | 0.00 | 0.00 | 61 | 1016.8 |
| 20260901162024 | 66 | 293 | 1.0 | 2.0 | 0.00 | 0.00 | 0.00 | 62 | 1016.7 |
| 20260901161504 | 65 | 0.0 | 1.0 | 0.00 | 0.00 | 0.00 | 62 | 1016.6 | |
| 20260901161003 | 65 | 270 | 1.0 | 2.0 | 0.00 | 0.00 | 0.00 | 62 | 1016.7 |
| 20260901160504 | 65 | 315 | 1.0 | 2.0 | 0.00 | 0.00 | 0.00 | 62 | 1016.8 |
| 20260901160004 | 65 | 315 | 1.0 | 4.0 | 0.00 | 0.00 | 0.00 | 62 | 1016.8 |
| 20260901155524 | 65 | 270 | 1.0 | 2.0 | 0.00 | 0.00 | 0.00 | 63 | 1016.6 |
| 20260901155009 | 65 | 225 | 1.0 | 2.0 | 0.00 | 0.00 | 0.00 | 63 | 1016.6 |
| 20260901154524 | 65 | 270 | 1.0 | 3.0 | 0.00 | 0.00 | 0.00 | 63 | 1016.6 |
| 20260901154028 | 64 | 225 | 1.0 | 5.0 | 0.00 | 0.00 | 0.00 | 64 | 1016.4 |
| 20260901153504 | 64 | 315 | 1.0 | 2.0 | 0.00 | 0.00 | 0.00 | 64 | 1016.5 |
| 20260901153004 | 64 | 315 | 1.0 | 2.0 | 0.00 | 0.00 | 0.00 | 65 | 1016.4 |
| 20260901152508 | 64 | 225 | 1.0 | 2.0 | 0.00 | 0.00 | 0.00 | 66 | 1016.4 |
| 20260901152006 | 63 | 225 | 1.0 | 2.0 | 0.00 | 0.00 | 0.00 | 66 | 1016.2 |
| 20260901151508 | 63 | 0.0 | 1.0 | 0.00 | 0.00 | 0.00 | 67 | 1016.2 | |
| 20260901151004 | 63 | 248 | 1.0 | 2.0 | 0.00 | 0.00 | 0.00 | 67 | 1016.3 |
| 20260901150509 | 63 | 225 | 1.0 | 2.0 | 0.00 | 0.00 | 0.00 | 67 | 1016.3 |
| 20260901150006 | 63 | 248 | 1.0 | 3.0 | 0.00 | 0.00 | 0.00 | 68 | 1016.2 |
| 20260901145503 | 62 | 225 | 1.0 | 2.0 | 0.00 | 0.00 | 0.00 | 68 | 1016.0 |
| 20260901145003 | 62 | 180 | 1.0 | 2.0 | 0.00 | 0.00 | 0.00 | 68 | 1016.0 |
| 20260901144504 | 62 | 248 | 1.0 | 2.0 | 0.00 | 0.00 | 0.00 | 69 | 1015.9 |
| 20260901144008 | 62 | 0.0 | 1.0 | 0.00 | 0.00 | 0.00 | 69 | 1016.0 | |
| 20260901143508 | 62 | 0.0 | 3.0 | 0.00 | 0.00 | 0.00 | 69 | 1015.9 | |
| 20260901143008 | 62 | 0.0 | 1.0 | 0.00 | 0.00 | 0.00 | 69 | 1015.8 | |
| 20260901142503 | 62 | 248 | 1.0 | 2.0 | 0.00 | 0.00 | 0.00 | 69 | 1015.8 |
| 20260901142004 | 61 | 0.0 | 2.0 | 0.00 | 0.00 | 0.00 | 69 | 1015.7 | |
| 20260901141503 | 61 | 0.0 | 1.0 | 0.00 | 0.00 | 0.00 | 69 | 1015.7 | |
| 20260901141008 | 61 | 0.0 | 2.0 | 0.00 | 0.00 | 0.00 | 70 | 1015.5 | |
| 20260901140508 | 61 | 248 | 1.0 | 2.0 | 0.00 | 0.00 | 0.00 | 70 | 1015.5 |
| 20260901140008 | 61 | 248 | 1.0 | 3.0 | 0.00 | 0.00 | 0.00 | 70 | 1015.3 |
| 20260901135508 | 61 | 248 | 1.0 | 3.0 | 0.00 | 0.00 | 0.00 | 70 | 1015.3 |
| 20260901135003 | 61 | 248 | 1.0 | 2.0 | 0.00 | 0.00 | 0.00 | 70 | 1015.3 |
| 20260901134529 | 61 | 248 | 1.0 | 3.0 | 0.00 | 0.00 | 0.00 | 70 | 1015.1 |
| 20260901134003 | 61 | 248 | 1.0 | 3.0 | 0.00 | 0.00 | 0.00 | 70 | 1015.2 |
| 20260901133523 | 61 | 270 | 1.0 | 2.0 | 0.00 | 0.00 | 0.00 | 71 | 1015.2 |
| 20260901133008 | 61 | 0.0 | 2.0 | 0.00 | 0.00 | 0.00 | 71 | 1015.1 | |
| 20260901132503 | 61 | 0.0 | 1.0 | 0.00 | 0.00 | 0.00 | 71 | 1015.1 | |
| 20260901132003 | 61 | 0.0 | 1.0 | 0.00 | 0.00 | 0.00 | 71 | 1014.9 | |
| 20260901131528 | 61 | 0.0 | 1.0 | 0.00 | 0.00 | 0.00 | 71 | 1014.9 | |
| 20260901131028 | 61 | 0.0 | 2.0 | 0.00 | 0.00 | 0.00 | 71 | 1014.9 | |
| 20260901130508 | 61 | 0.0 | 2.0 | 0.00 | 0.00 | 0.00 | 71 | 1014.9 | |
| 20260901130003 | 61 | 0.0 | 1.0 | 0.00 | 0.00 | 0.00 | 71 | 1014.8 | |
| 20260901125523 | 61 | 0.0 | 2.0 | 0.00 | 0.00 | 0.00 | 72 | 1014.8 | |
| 20260901125006 | 61 | 0.0 | 1.0 | 0.00 | 0.00 | 0.00 | 72 | 1014.7 | |
| 20260901124504 | 61 | 0.0 | 2.0 | 0.00 | 0.00 | 0.00 | 72 | 1014.9 | |
| 20260901124023 | 61 | 0.0 | 2.0 | 0.00 | 0.00 | 0.00 | 72 | 1014.9 | |
| 20260901123503 | 61 | 0.0 | 1.0 | 0.00 | 0.00 | 0.00 | 72 | 1014.8 | |
| 20260901123028 | 61 | 0.0 | 1.0 | 0.00 | 0.00 | 0.00 | 72 | 1014.7 | |
| 20260901122523 | 61 | 0.0 | 1.0 | 0.00 | 0.00 | 0.00 | 72 | 1014.8 | |
| 20260901122008 | 61 | 0.0 | 1.0 | 0.00 | 0.00 | 0.00 | 73 | 1014.9 | |
| 20260901121508 | 61 | 0.0 | 1.0 | 0.00 | 0.00 | 0.00 | 73 | 1014.9 | |
| 20260901121008 | 61 | 0.0 | 1.0 | 0.00 | 0.00 | 0.00 | 73 | 1014.8 | |
| 20260901120508 | 61 | 0.0 | 1.0 | 0.00 | 0.00 | 0.00 | 73 | 1014.8 | |
| 20260901120008 | 61 | 0.0 | 1.0 | 0.00 | 0.00 | 0.00 | 73 | 1014.8 | |
| 20260901115548 | 61 | 0.0 | 1.0 | 0.00 | 0.00 | 0.00 | 73 | 1014.8 | |
| 20260901115003 | 61 | 0.0 | 1.0 | 0.00 | 0.00 | 0.00 | 73 | 1014.8 | |
| 20260901114508 | 60 | 0.0 | 2.0 | 0.00 | 0.00 | 0.00 | 73 | 1014.7 | |
| 20260901114029 | 60 | 0.0 | 1.0 | 0.00 | 0.00 | 0.00 | 73 | 1014.8 | |
| 20260901113508 | 60 | 0.0 | 2.0 | 0.00 | 0.00 | 0.00 | 73 | 1014.9 | |
| 20260901113028 | 60 | 0.0 | 1.0 | 0.00 | 0.00 | 0.00 | 74 | 1014.9 | |
| 20260901112508 | 60 | 0.0 | 2.0 | 0.00 | 0.00 | 0.00 | 74 | 1015.0 | |
| 20260901112028 | 60 | 0.0 | 1.0 | 0.00 | 0.00 | 0.00 | 74 | 1015.1 | |
| 20260901111503 | 60 | 0.0 | 2.0 | 0.00 | 0.00 | 0.00 | 74 | 1015.1 | |
| 20260901111005 | 60 | 0.0 | 1.0 | 0.00 | 0.00 | 0.00 | 74 | 1015.1 | |
| 20260901110530 | 60 | 0.0 | 1.0 | 0.00 | 0.00 | 0.00 | 75 | 1015.1 | |
| 20260901110005 | 60 | 0.0 | 1.0 | 0.00 | 0.00 | 0.00 | 75 | 1015.2 | |
| 20260901105510 | 60 | 0.0 | 2.0 | 0.00 | 0.00 | 0.00 | 76 | 1015.1 | |
| 20260901105005 | 59 | 0.0 | 2.0 | 0.00 | 0.00 | 0.00 | 76 | 1015.1 | |
| 20260901104510 | 59 | 248 | 1.0 | 3.0 | 0.00 | 0.00 | 0.00 | 77 | 1015.1 |
| 20260901104010 | 59 | 0.0 | 3.0 | 0.00 | 0.00 | 0.00 | 78 | 1015.1 | |
| 20260901103510 | 59 | 0.0 | 2.0 | 0.00 | 0.00 | 0.00 | 79 | 1015.0 | |
| 20260901103010 | 59 | 0.0 | 1.0 | 0.00 | 0.00 | 0.00 | 80 | 1014.9 | |
| 20260901102510 | 59 | 0.0 | 1.0 | 0.00 | 0.00 | 0.00 | 80 | 1015.0 | |
| 20260901102005 | 59 | 0.0 | 1.0 | 0.00 | 0.00 | 0.00 | 81 | 1015.0 | |
| 20260901101510 | 58 | 0.0 | 2.0 | 0.00 | 0.00 | 0.00 | 81 | 1014.9 | |
| 20260901101010 | 58 | 0.0 | 1.0 | 0.00 | 0.00 | 0.00 | 81 | 1014.9 | |
| 20260901100510 | 58 | 0.0 | 1.0 | 0.00 | 0.00 | 0.00 | 82 | 1014.8 | |
| 20260901100005 | 58 | 0.0 | 1.0 | 0.00 | 0.00 | 0.00 | 82 | 1014.8 | |
| 20260901095510 | 58 | 0.0 | 1.0 | 0.00 | 0.00 | 0.00 | 82 | 1014.8 | |
| 20260901095009 | 57 | 0.0 | 1.0 | 0.00 | 0.00 | 0.00 | 83 | 1014.8 | |
| 20260901094505 | 57 | 0.0 | 1.0 | 0.00 | 0.00 | 0.00 | 83 | 1014.7 | |
| 20260901094030 | 57 | 0.0 | 1.0 | 0.00 | 0.00 | 0.00 | 83 | 1014.7 | |
| 20260901093510 | 57 | 0.0 | 1.0 | 0.00 | 0.00 | 0.00 | 83 | 1014.7 | |
| 20260901093010 | 57 | 0.0 | 1.0 | 0.00 | 0.00 | 0.00 | 84 | 1014.8 | |
| 20260901092510 | 57 | 0.0 | 1.0 | 0.00 | 0.00 | 0.00 | 84 | 1014.7 | |
| 20260901092010 | 57 | 0.0 | 1.0 | 0.00 | 0.00 | 0.00 | 84 | 1014.8 | |
| 20260901091505 | 57 | 0.0 | 1.0 | 0.00 | 0.00 | 0.00 | 84 | 1014.9 | |
| 20260901091009 | 56 | 0.0 | 1.0 | 0.00 | 0.00 | 0.00 | 84 | 1014.9 | |
| 20260901090510 | 56 | 0.0 | 1.0 | 0.00 | 0.00 | 0.00 | 84 | 1014.8 | |
| 20260901090030 | 56 | 0.0 | 0.0 | 0.00 | 0.00 | 0.00 | 84 | 1014.9 | |
| 20260901085504 | 56 | 0.0 | 1.0 | 0.00 | 0.00 | 0.00 | 84 | 1014.8 | |
| 20260901085030 | 56 | 0.0 | 1.0 | 0.00 | 0.00 | 0.00 | 84 | 1014.9 | |
| 20260901084529 | 56 | 0.0 | 1.0 | 0.00 | 0.00 | 0.00 | 84 | 1014.9 | |
| 20260901084005 | 56 | 0.0 | 1.0 | 0.00 | 0.00 | 0.00 | 84 | 1014.8 | |
| 20260901083509 | 55 | 0.0 | 1.0 | 0.00 | 0.00 | 0.00 | 84 | 1014.7 | |
| 20260901083005 | 55 | 0.0 | 1.0 | 0.00 | 0.00 | 0.00 | 84 | 1014.8 | |
| 20260901082510 | 55 | 0.0 | 1.0 | 0.00 | 0.00 | 0.00 | 83 | 1014.8 | |
| 20260901082010 | 55 | 0.0 | 1.0 | 0.00 | 0.00 | 0.00 | 83 | 1014.8 | |
| 20260901081505 | 55 | 0.0 | 1.0 | 0.00 | 0.00 | 0.00 | 83 | 1014.9 | |
| 20260901081005 | 56 | 0.0 | 1.0 | 0.00 | 0.00 | 0.00 | 83 | 1014.8 | |
| 20260901080509 | 56 | 0.0 | 1.0 | 0.00 | 0.00 | 0.00 | 83 | 1014.9 | |
| 20260901080010 | 56 | 0.0 | 1.0 | 0.00 | 0.00 | 0.00 | 83 | 1014.8 | |
| 20260901075505 | 56 | 0.0 | 1.0 | 0.00 | 0.00 | 0.00 | 83 | 1014.7 | |
| 20260901075004 | 56 | 0.0 | 1.0 | 0.00 | 0.00 | 0.00 | 83 | 1014.7 | |
| 20260901074504 | 56 | 0.0 | 1.0 | 0.00 | 0.00 | 0.00 | 83 | 1014.8 | |
| 20260901074024 | 56 | 0.0 | 1.0 | 0.00 | 0.00 | 0.00 | 83 | 1014.7 | |
| 20260901073509 | 56 | 0.0 | 1.0 | 0.00 | 0.00 | 0.00 | 83 | 1014.7 | |
| 20260901073010 | 56 | 0.0 | 1.0 | 0.00 | 0.00 | 0.00 | 83 | 1014.9 | |
| 20260901072509 | 56 | 0.0 | 1.0 | 0.00 | 0.00 | 0.00 | 82 | 1014.8 |